Weather in Lloret De Mar

Spain     41°42′13″N   2°50′39″E
temp.,
°C
wind,
m/s
gust,
m/s
humid.,
%
clouds,
%
prec.,
mm/h
press.,
hPa
HPBL,
m
16 may, sun
sun1623:00+13n337289 0.0 101360
02:00+13nnw227698 0.0 101224
05:00+13wnw1174100 0.0 101011
08:00+15nw017095 0.0 101060
11:00+21se2254100 0.0 1010679
14:00+23se435294 0.0 1009651
17:00+20e346588 0.0 1010465
20:00+18e237717 0.0 1011308
17 may, mon
mon1723:00+13ne229443 0.0 101326
02:00+14nne118290 0.0 101421
05:00+14ssw128995 0.0 1015157
08:00+14s2683100 0.1 1017546
11:00+14ssw4780100 0.2 1019666
14:00+13s2690100 0.7 1019509
17:00+16s357158 0.1 1019831
20:00+15sw34735 0.1 1019497
18 may, tue
tue1823:00+11w119295 0.0 102127
02:00+10wnw1192100 0.0 102017
05:00+10sw1191100 0.0 102022
08:00+14wsw1284100 0.0 1020122
11:00+16s347599 0.0 1020699
14:00+19ssw3472100 0.3 10191016
17:00+12ne3792100 0.5 1020368
20:00+12nne1191100 1.4 102169
19 may, wed
wed1923:00+12ssw1292100 0.1 102271
02:00+12wnw1187100 0.1 102126
05:00+12nne0187100 0.1 102120
08:00+12sse1187100 0.1 102163
11:00+17s3462100 0.1 10211248
14:00+17ssw566257 0.3 10201027
17:00+13e3483100 0.5 1021402
20:00+11nnw2494100 1.6 1022188
20 may, thu
thu2023:00+9nnw2193100 0.8 102423
02:00+9nw229134 0.8 102420
05:00+7nnw22874 0.0 102436
08:00+9nnw22760 0.0 102670
11:00+18s11376 0.0 1025740
14:00+20sse44345 0.0 10251258
17:00+18s444165 0.0 1025577
20:00+15s2353100 0.0 102481